GW3496 Weather Reports


time (UTC)temp
C
wind
direction
speed
KPH
gust
KPH
rain 1hr
cm
rain 24hr
cm
rain mn
cm
humidity
%
barometer
mb
20260905171543 22 105 3.2 6.4 0.36 0.36 0.36 92 1009.3
20260905170042 22 144 3.2 8.0 0.28 0.28 0.28 90 1009.6
20260905164545 22 53 0.0 12.9 0.20 0.20 0.20 89 1010.1
20260905163044 24 248 24.1 43.5 0.08 0.08 0.08 83 1011.5
20260905161540 25 304 1.6 12.9 0.00 0.00 0.00 80 1011.0
20260905160107 25 360 8.0 16.1 0.00 0.00 0.00 78 1010.8
20260905154548 26 360 8.0 16.1 0.00 0.00 0.00 77 1010.7
20260905153042 26 33 8.0 19.3 0.00 0.00 0.00 77 1010.4
20260905151540 26 26 4.8 12.9 0.00 0.00 0.00 77 1010.5
20260905150040 26 344 3.2 16.1 0.00 0.00 0.00 77 1010.8
20260905144544 26 15 8.0 16.1 0.00 0.00 0.00 77 1010.8
20260905143044 26 13 8.0 16.1 0.00 0.00 0.00 77 1011.0
20260905141544 26 31 4.8 14.5 0.00 0.00 0.00 77 1010.5
20260905140049 26 344 3.2 14.5 0.00 0.00 0.00 78 1010.4
20260905134543 26 17 6.4 14.5 0.00 0.00 0.00 78 1010.1
20260905133043 25 38 4.8 17.7 0.00 0.00 0.00 80 1009.8
20260905131541 25 50 6.4 16.1 0.00 0.00 0.00 82 1010.3
20260905130039 23 336 6.4 12.9 0.00 0.00 0.00 87 1009.9
20260905124543 23 337 1.6 8.0 0.00 0.00 0.00 88 1010.2
20260905123043 22 52 0.0 4.8 0.00 0.00 0.00 89 1009.8
20260905121539 22 47 4.8 8.0 0.00 0.00 0.00 89 1009.6
20260905120042 22 5 0.0 4.8 0.00 0.00 0.00 90 1009.8
20260905114546 22 82 1.6 6.4 0.00 0.00 0.00 91 1009.5
20260905113047 22 67 0.0 0.0 0.00 0.00 0.00 92 1009.5
20260905111607 22 84 0.0 0.0 0.00 0.00 0.00 92 1009.5
20260905110056 22 84 0.0 0.0 0.00 0.00 0.00 92 1008.8
20260905104550 21 350 0.0 0.0 0.00 0.00 0.00 91 1008.7
20260905103049 22 350 0.0 0.0 0.00 0.00 0.00 91 1008.7
20260905101543 22 350 0.0 0.0 0.00 0.00 0.00 91 1008.5
20260905100045 22 355 0.0 0.0 0.00 0.00 0.00 91 1008.6
20260905094539 22 338 1.6 6.4 0.00 0.00 0.00 91 1008.3
20260905093045 22 302 0.0 0.0 0.00 0.00 0.00 91 1008.1
20260905091611 22 324 1.6 6.4 0.00 0.00 0.00 91 1008.1
20260905090116 22 331 3.2 8.0 0.00 0.00 0.00 91 1008.2
20260905084556 22 316 4.8 9.7 0.00 0.00 0.00 91 1008.3
20260905083045 22 295 3.2 8.0 0.00 0.00 0.00 91 1008.5
20260905081542 22 302 3.2 6.4 0.00 0.00 0.00 91 1008.7
20260905080055 22 250 3.2 9.7 0.00 0.00 0.00 91 1008.8
20260905074549 22 336 1.6 8.0 0.00 0.05 0.00 91 1008.9
20260905073051 22 323 3.2 8.0 0.00 0.05 0.00 91 1009.0
20260905071550 22 5 3.2 9.7 0.00 0.05 0.00 90 1009.0
20260905070057 22 304 6.4 16.1 0.00 0.05 0.00 90 1009.3
20260905064550 22 285 3.2 12.9 0.00 0.30 0.00 90 1009.4
20260905063045 22 281 8.0 17.7 0.00 0.30 0.00 90 1009.7
20260905061557 22 302 3.2 16.1 0.00 0.30 0.00 90 1009.7
20260905060116 22 298 9.7 17.7 0.00 0.30 0.00 90 1010.1
20260905054549 22 290 8.0 16.1 0.00 1.19 0.00 89 1010.3
20260905053052 22 259 9.7 14.5 0.00 1.19 0.00 89 1010.3
20260905051558 23 260 8.0 14.5 0.00 1.19 0.00 89 1010.5
20260905050055 23 194 0.0 8.0 0.00 1.19 0.00 89 1010.8
20260905044602 23 127 1.6 8.0 0.00 1.19 0.00 89 1010.8
20260905043529 23 239 6.4 12.9 0.00 1.19 0.00 89 1010.7
20260905041537 23 299 3.2 16.1 0.00 1.19 0.00 88 1010.9
20260905040036 23 271 1.6 6.4 0.00 1.19 0.00 87 1011.1
20260905034547 23 211 0.0 6.4 0.00 1.19 1.19 87 1011.1
20260905033037 23 304 0.0 0.0 0.00 1.19 1.19 86 1011.0
20260905031538 23 231 1.6 9.7 0.00 1.19 1.19 86 1010.9
20260905030039 24 254 3.2 11.3 0.00 1.19 1.19 85 1011.0
20260905024538 24 252 0.0 6.4 0.00 1.19 1.19 85 1011.1
20260905023037 24 259 3.2 6.4 0.00 1.19 1.19 84 1011.3
20260905021534 25 164 0.0 0.0 0.00 1.19 1.19 84 1011.1
20260905020040 24 244 0.0 4.8 0.00 1.19 1.19 84 1011.2
20260905014538 24 211 0.0 6.4 0.00 1.19 1.19 84 1010.7
20260905013039 24 257 3.2 6.4 0.00 1.19 1.19 84 1010.6
20260905011542 24 196 0.0 3.2 0.00 1.19 1.19 84 1010.5
20260905010036 25 263 0.0 0.0 0.00 1.19 1.19 84 1010.2
20260905004547 25 250 0.0 6.4 0.00 1.19 1.19 83 1010.0
20260905003034 25 184 1.6 11.3 0.00 1.19 1.19 83 1009.9
20260905001548 25 193 4.8 11.3 0.00 1.19 1.19 84 1009.7
20260905000040 25 319 3.2 12.9 0.00 1.19 1.19 83 1010.3
20260904234541 25 269 8.0 17.7 0.00 1.19 1.19 82 1010.6
20260904233044 26 229 8.0 19.3 0.00 1.19 1.19 80 1010.5
20260904231545 26 286 1.6 11.3 0.00 1.19 1.19 79 1010.4
20260904230037 26 294 0.0 0.0 0.00 1.19 1.19 79 1010.0
20260904224547 26 182 0.0 9.7 0.00 1.19 1.19 79 1010.1
20260904223055 27 180 6.4 14.5 0.00 1.19 1.19 80 1010.4
20260904221537 27 180 3.2 11.3 0.00 1.19 1.19 80 1010.3
20260904220037 28 244 12.9 22.5 0.00 1.19 1.19 77 1010.8
20260904214541 28 310 6.4 16.1 0.00 1.19 1.19 73 1011.9
20260904213044 29 5 4.8 12.9 0.00 1.19 1.19 69 1011.4
20260904211542 29 56 4.8 19.3 0.00 1.19 1.19 70 1010.8
20260904210056 31 345 3.2 8.0 0.00 1.19 1.19 67 1010.6
20260904204540 31 355 3.2 8.0 0.00 1.19 1.19 66 1010.5
20260904203041 31 334 0.0 9.7 0.00 1.19 1.19 66 1010.8
20260904201543 32 344 3.2 8.0 0.00 1.19 1.19 65 1010.7
20260904200041 32 25 0.0 4.8 0.00 1.19 1.19 61 1009.9
20260904194546 32 11 1.6 12.9 0.00 1.19 1.19 61 1010.8
20260904193052 33 18 4.8 12.9 0.00 1.19 1.19 60 1011.1
20260904191550 33 279 9.7 17.7 0.00 1.19 1.19 59 1011.1
20260904190043 33 312 6.4 12.9 0.00 1.19 1.19 59 1011.1
20260904184540 33 279 4.8 17.7 0.00 1.19 1.19 59 1011.5
20260904183039 33 355 8.0 16.1 0.00 1.19 1.19 59 1011.7
20260904181542 32 279 4.8 14.5 0.00 1.19 1.19 60 1012.0
20260904180042 32 245 8.0 16.1 0.00 1.19 1.19 61 1012.0
20260904174548 32 333 3.2 12.9 0.00 1.19 1.19 60 1012.5
20260904173052 32 40 0.0 8.0 0.00 1.19 1.19 60 1012.8